1506708001.05,62276,17.88,74438.3,-3.81,-37.75,-37.75,0,*5D
1506708002.28,62277,17.88,74438.8,-3.79,-37.69,-37.57,0,*56
1506708003.58,62278,17.88,74440.5,-3.81,-37.81,-37.63,0,*5F
1506708004.84,62279,17.88,74442.0,-3.81,-37.75,-37.63,0,*55
1506708006.1,62280,17.88,74438.8,-3.81,-37.57,-37.63,0,*53
1506708007.39,62281,17.88,74438.8,-3.81,-37.63,-37.63,0,*55
1506708008.63,62282,17.88,74438.3,-3.79,-37.69,-37.57,0,*5C
1506708009.86,62283,17.88,74436.8,-3.79,-37.69,-37.57,0,*5D
1506708011.09,62284,17.88,74442.0,-3.79,-37.69,-37.57,0,*5A
1506708012.32,62285,17.88,74442.0,-3.79,-37.75,-37.69,0,*5B
1506708013.52,62286,17.88,74442.0,-3.79,-37.75,-37.75,0,*55
1506708014.73,62287,17.88,74440.0,-3.79,-37.75,-37.75,0,*54
1506708015.96,62288,17.88,74438.8,-3.77,-37.75,-37.57,0,*55
1506708017.22,62289,17.88,74438.8,-3.77,-37.69,-37.57,0,*59
1506708018.48,62290,17.81,74436.5,-3.79,-37.69,-37.51,0,*59
1506708019.74,62291,17.88,74442.3,-3.79,-37.69,-37.51,0,*58
1506708021.0,62292,17.88,74442.0,-3.77,-37.69,-37.57,0,*53
1506708022.27,62293,17.81,74436.8,-3.77,-37.69,-37.69,0,*5F
1506708023.5,62294,17.88,74440.5,-3.77,-37.57,-37.57,0,*58
1506708024.73,62295,17.88,74436.0,-3.77,-37.75,-37.57,0,*59
1506708025.99,62296,17.88,74442.3,-3.79,-37.69,-37.69,0,*54
1506708027.24,62297,17.88,74442.3,-3.77,-37.69,-37.75,0,*56
1506708028.47,62298,17.88,74440.3,-3.77,-37.75,-37.75,0,*54
1506708029.73,62299,17.88,74442.0,-3.77,-37.75,-37.93,0,*5D
1506708030.97,62300,17.88,74442.3,-3.77,-37.87,-37.87,0,*54
1506708032.23,62301,17.88,74438.8,-3.77,-37.87,-37.93,0,*50
1506708033.51,62302,17.88,74440.3,-3.77,-37.93,-37.93,0,*56
1506708034.77,62303,17.88,74442.0,-3.79,-37.93,-37.93,0,*59
1506708035.99,62304,17.88,74442.8,-3.79,-38.05,-38.11,0,*5B
1506708037.27,62305,17.88,74442.5,-3.77,-38.11,-38.11,0,*51
1506708038.51,62306,17.88,74440.0,-3.75,-37.81,-37.87,0,*56
1506708039.77,62307,17.88,74440.8,-3.77,-37.93,-38.05,0,*53
1506708041.02,62308,17.88,74442.8,-3.77,-38.05,-38.11,0,*59
1506708042.27,62309,17.88,74442.0,-3.77,-38.05,-38.11,0,*58
1506708043.52,62310,17.88,74442.0,-3.79,-38.11,-38.11,0,*5B
1506708044.8,62311,17.88,74442.5,-3.77,-38.11,-38.11,0,*54
1506708046.02,62312,17.88,74440.8,-3.77,-38.05,-38.05,0,*57
1506708047.3,62313,17.88,74440.3,-3.77,-38.11,-38.11,0,*56
1506708048.56,62314,17.88,74442.3,-3.77,-38.05,-38.23,0,*55
1506708049.81,62315,17.88,74440.3,-3.77,-38.23,-38.43,0,*56
1506708051.1,62316,17.88,74442.8,-3.77,-38.11,-38.29,0,*58
1506708052.36,62317,17.88,74440.8,-3.77,-38.05,-38.23,0,*56
1506708053.59,62318,17.88,74440.0,-3.75,-38.05,-37.99,0,*55
1506708054.85,62319,17.88,74442.8,-3.75,-38.23,-38.23,0,*5E
1506708056.13,62320,17.88,74442.3,-3.77,-38.23,-38.29,0,*5C
1506708057.4,62321,17.88,74440.8,-3.77,-38.29,-38.43,0,*5B
1506708058.65,62322,17.88,74442.0,-3.77,-38.43,-38.49,0,*5E
1506708059.91,62323,17.88,74440.0,-3.77,-38.29,-38.43,0,*59
1506708061.15,62324,17.88,74442.5,-3.79,-38.29,-38.43,0,*50
1506708062.41,62325,17.81,74436.8,-3.79,-38.29,-38.49,0,*5B
1506708063.68,62326,17.88,74442.8,-3.77,-38.49,-38.43,0,*5A
1506708064.94,62327,17.81,74440.3,-3.77,-38.49,-38.43,0,*5B
1506708066.15,62328,17.88,74440.0,-3.79,-38.43,-38.43,0,*50
1506708067.43,62329,17.88,74444.3,-3.77,-38.23,-38.29,0,*55
1506708068.69,62330,17.88,74440.3,-3.79,-38.23,-38.49,0,*55
1506708069.92,62331,17.88,74442.3,-3.79,-38.23,-38.43,0,*5E
1506708071.16,62332,17.88,74440.3,-3.79,-38.23,-38.43,0,*5D
1506708072.39,62333,17.88,74440.0,-3.79,-38.23,-38.43,0,*5C
1506708073.65,62334,17.88,74444.3,-3.79,-38.49,-38.49,0,*5D
1506708074.88,62335,17.88,74440.0,-3.79,-38.23,-38.43,0,*5A
1506708076.14,62336,17.88,74440.5,-3.79,-38.23,-38.29,0,*55
1506708077.43,62337,17.88,74440.0,-3.77,-38.23,-38.23,0,*50
1506708078.68,62338,17.88,74442.0,-3.79,-38.11,-38.29,0,*5A
1506708079.94,62339,17.88,74442.0,-3.79,-38.11,-38.49,0,*5D
1506708081.22,62340,17.88,74442.3,-3.77,-38.23,-38.23,0,*50
1506708082.51,62341,17.88,74440.3,-3.77,-38.23,-38.23,0,*51
1506708083.79,62342,17.88,74444.5,-3.77,-38.23,-38.29,0,*58
1506708085.02,62343,17.88,74440.3,-3.79,-38.23,-38.43,0,*5B
1506708086.26,62344,17.88,74442.3,-3.77,-38.43,-38.43,0,*54
1506708087.52,62345,17.88,74440.8,-3.79,-38.29,-38.49,0,*5D
1506708088.8,62346,17.88,74440.8,-3.77,-38.23,-38.23,0,*56
1506708090.08,62347,17.88,74442.5,-3.77,-38.11,-38.23,0,*56
1506708091.34,62348,17.88,74442.0,-3.79,-38.23,-38.29,0,*5C
1506708092.63,62349,17.88,74442.8,-3.77,-38.29,-38.29,0,*59
1506708093.91,62350,17.81,74440.5,-3.77,-38.23,-38.29,0,*5B
1506708095.19,62351,17.88,74442.8,-3.77,-38.11,-38.23,0,*51
1506708096.4,62352,17.81,74440.3,-3.75,-38.05,-38.17,0,*52
1506708097.68,62353,17.88,74442.0,-3.77,-38.11,-38.23,0,*53
1506708098.97,62354,17.88,74444.3,-3.77,-38.23,-38.29,0,*5F
1506708100.23,62355,17.88,74440.5,-3.77,-38.29,-38.43,0,*58
1506708101.43,62356,17.88,74442.8,-3.75,-38.05,-38.17,0,*56
1506708102.67,62357,17.88,74442.8,-3.75,-38.17,-38.23,0,*53
1506708103.93,62358,17.88,74440.8,-3.73,-38.05,-38.23,0,*59
1506708105.17,62359,17.88,74442.0,-3.75,-38.23,-38.35,0,*5D
1506708106.38,62360,17.88,74440.5,-3.75,-38.17,-38.35,0,*50
1506708107.61,62361,17.88,74442.5,-3.75,-38.05,-38.23,0,*55
1506708108.82,62362,17.88,74442.8,-3.75,-38.05,-38.35,0,*51
1506708110.06,62363,17.88,74444.0,-3.75,-38.17,-38.23,0,*54
1506708111.27,62364,17.88,74440.8,-3.75,-38.17,-38.35,0,*54
1506708112.5,62365,17.88,74440.3,-3.75,-38.23,-38.43,0,*53
1506708113.74,62366,17.88,74442.5,-3.75,-38.23,-38.35,0,*51
1506708114.97,62367,17.88,74442.5,-3.75,-38.23,-38.43,0,*51
1506708116.18,62368,17.88,74442.0,-3.75,-38.43,-38.43,0,*58
1506708117.39,62369,17.88,74442.5,-3.75,-38.35,-38.43,0,*58
1506708118.59,62370,17.88,74440.5,-3.75,-38.35,-38.43,0,*50
1506708119.8,62371,17.88,74440.3,-3.75,-38.43,-38.43,0,*50
1506708121.06,62372,17.81,74442.3,-3.77,-38.43,-38.49,0,*5B
1506708122.27,62373,17.88,74440.8,-3.75,-38.35,-38.35,0,*52
1506708123.48,62374,17.88,74444.3,-3.75,-38.43,-38.43,0,*55
1506708124.69,62375,17.88,74440.3,-3.75,-38.43,-38.43,0,*54
1506708125.9,62376,17.88,74444.0,-3.75,-38.43,-38.43,0,*57
1506708127.18,62377,17.88,74442.8,-3.77,-38.49,-38.49,0,*54
1506708128.47,62378,17.88,74440.3,-3.77,-38.29,-38.49,0,*5D
1506708129.68,62379,17.88,74444.0,-3.75,-38.35,-38.43,0,*59
1506708130.89,62380,17.88,74442.8,-3.75,-38.35,-38.43,0,*5F
1506708132.17,62381,17.88,74440.8,-3.77,-38.49,-38.49,0,*5D
1506708133.45,62382,17.88,74444.0,-3.77,-38.67,-38.67,0,*5E
1506708134.7,62383,17.81,74440.5,-3.77,-38.67,-38.73,0,*5A
1506708135.95,62384,17.88,74442.5,-3.77,-38.67,-38.85,0,*54
1506708137.2,62385,17.88,74442.8,-3.79,-38.67,-38.67,0,*57
1506708138.46,62386,17.88,74440.8,-3.77,-38.61,-38.67,0,*5C
1506708139.72,62387,17.88,74440.5,-3.77,-38.61,-38.67,0,*5D
1506708140.95,62388,17.88,74440.3,-3.77,-38.73,-38.85,0,*5D
1506708142.2,62389,17.88,74440.8,-3.77,-38.73,-38.91,0,*59
1506708143.45,62390,17.88,74440.8,-3.77,-38.73,-39.03,0,*5B
1506708144.69,62391,17.81,74438.5,-3.79,-38.85,-38.91,0,*57
1506708145.94,62392,17.88,74442.5,-3.79,-38.91,-38.91,0,*51
1506708147.23,62393,17.81,74438.3,-3.81,-38.67,-38.79,0,*58
1506708148.45,62394,17.81,74440.5,-3.83,-38.73,-38.91,0,*5E
1506708149.74,62395,17.88,74442.5,-3.81,-38.91,-38.91,0,*51
1506708151.03,62396,17.81,74438.8,-3.81,-38.79,-38.91,0,*54
1506708152.28,62397,17.88,74442.8,-3.81,-38.67,-38.73,0,*56
1506708153.53,62398,17.81,74440.0,-3.81,-38.73,-38.79,0,*56
1506708154.82,62399,17.81,74440.3,-3.81,-38.79,-39.15,0,*56
1506708156.11,62400,17.88,74440.0,-3.81,-38.79,-38.91,0,*5C
1506708157.34,62401,17.81,74438.0,-3.83,-38.73,-38.79,0,*53
1506708158.62,62402,17.81,74438.0,-3.81,-38.67,-38.91,0,*51
1506708159.86,62403,17.88,74440.0,-3.83,-38.79,-39.09,0,*5D
1506708161.09,62404,17.88,74440.3,-3.83,-38.91,-39.09,0,*5C
1506708162.33,62405,17.81,74438.8,-3.83,-38.91,-39.09,0,*5D
1506708163.56,62406,17.81,74440.3,-3.83,-38.79,-39.09,0,*58
1506708164.8,62407,17.81,74438.0,-3.83,-38.91,-39.09,0,*5F
1506708166.03,62408,17.88,74442.0,-3.83,-38.79,-38.97,0,*50
1506708167.26,62409,17.81,74440.3,-3.87,-38.97,-39.03,0,*59
1506708168.48,62410,17.88,74440.8,-3.87,-38.97,-39.15,0,*56
1506708169.72,62411,17.88,74442.0,-3.87,-38.85,-39.03,0,*53
1506708171.0,62412,17.88,74442.3,-3.89,-38.91,-39.23,0,*59
1506708172.28,62413,17.81,74438.0,-3.89,-39.03,-39.29,0,*58
1506708173.54,62414,17.81,74438.5,-3.89,-39.09,-39.41,0,*5B
1506708174.83,62415,17.88,74442.3,-3.89,-39.03,-39.29,0,*5E
1506708176.09,62416,17.81,74438.3,-3.89,-39.09,-39.29,0,*57
1506708177.36,62417,17.81,74436.3,-3.89,-39.09,-39.41,0,*58
1506708178.62,62418,17.81,74440.5,-3.89,-39.03,-39.09,0,*51
1506708179.91,62419,17.88,74440.0,-3.89,-38.79,-39.03,0,*56
1506708181.2,62420,17.81,74436.8,-3.89,-38.79,-38.91,0,*56
1506708182.41,62421,17.88,74440.3,-3.91,-38.85,-39.09,0,*5D
1506708183.63,62422,17.88,74440.8,-3.91,-38.85,-39.09,0,*5E
1506708184.88,62423,17.88,74440.8,-3.91,-38.91,-39.23,0,*52
1506708186.11,62424,17.88,74442.0,-3.91,-38.91,-39.09,0,*5D
1506708187.37,62425,17.88,74442.3,-3.93,-38.67,-38.85,0,*52
1506708188.61,62426,17.88,74440.8,-3.91,-38.61,-38.91,0,*50
1506708189.84,62427,17.81,74440.3,-3.91,-38.97,-39.15,0,*55
1506708191.07,62428,17.81,74438.0,-3.93,-38.85,-38.97,0,*50
1506708192.3,62429,17.81,74438.0,-3.93,-38.85,-39.35,0,*58
1506708193.54,62430,17.81,74442.5,-3.91,-38.91,-39.09,0,*58
1506708194.82,62431,17.81,74442.3,-3.93,-38.91,-39.15,0,*56
1506708196.07,62432,17.81,74442.0,-3.93,-38.97,-39.15,0,*53
1506708197.36,62433,17.81,74440.8,-3.93,-38.91,-39.29,0,*5B
1506708198.61,62434,17.81,74438.8,-3.93,-38.97,-39.29,0,*5A
1506708199.84,62435,17.81,74440.8,-3.95,-39.15,-39.35,0,*5B
1506708201.08,62436,17.88,74442.3,-3.95,-39.09,-39.29,0,*58
1506708202.29,62437,17.88,74440.8,-3.95,-38.85,-39.09,0,*5E
1506708203.51,62438,17.81,74442.8,-3.95,-38.85,-38.97,0,*57
1506708204.75,62439,17.88,74442.0,-3.95,-38.85,-38.91,0,*50
1506708205.98,62440,17.88,74442.8,-3.95,-38.97,-39.15,0,*50
1506708207.21,62441,17.81,74440.5,-3.95,-38.73,-38.91,0,*56
1506708208.5,62442,17.81,74440.0,-3.97,-38.91,-39.15,0,*56
1506708209.76,62443,17.81,74438.8,-3.97,-38.91,-38.97,0,*5C
1506708211.02,62444,17.88,74440.8,-3.97,-38.97,-39.15,0,*56
1506708212.31,62445,17.81,74440.3,-3.97,-38.91,-39.03,0,*56
1506708213.54,62446,17.81,74440.8,-3.95,-38.73,-38.91,0,*51
1506708214.78,62447,17.81,74442.3,-3.95,-38.91,-39.09,0,*5C
1506708216.07,62448,17.88,74442.5,-3.97,-38.91,-39.03,0,*5B
1506708217.35,62449,17.88,74440.8,-3.97,-38.91,-39.03,0,*5A
1506708218.64,62450,17.88,74440.5,-3.97,-38.79,-39.03,0,*54
1506708219.85,62451,17.88,74444.3,-3.95,-38.85,-38.97,0,*58
1506708221.12,62452,17.88,74444.3,-3.97,-38.79,-38.97,0,*5A
1506708222.38,62453,17.81,74440.8,-3.97,-38.97,-39.03,0,*57
1506708223.64,62454,17.81,74438.5,-3.97,-38.97,-39.15,0,*57
1506708224.93,62455,17.88,74442.0,-3.97,-39.03,-39.23,0,*5F
1506708226.19,62456,17.81,74440.5,-3.97,-39.15,-39.35,0,*5C
1506708227.45,62457,17.81,74440.0,-3.99,-39.03,-39.15,0,*56
1506708228.74,62458,17.88,74442.8,-4.01,-39.03,-39.23,0,*5A
1506708229.98,62459,17.88,74444.5,-4.01,-38.85,-39.09,0,*5C
1506708231.25,62460,17.81,74442.3,-3.99,-39.03,-39.15,0,*52
1506708232.51,62461,17.88,74442.5,-4.01,-39.03,-39.09,0,*58
1506708233.75,62462,17.88,74444.5,-3.99,-38.79,-38.97,0,*57
1506708235.04,62463,17.81,74442.0,-4.01,-38.79,-39.03,0,*5C
1506708236.25,62464,17.88,74444.8,-3.99,-38.73,-38.97,0,*5B
1506708237.48,62465,17.81,74442.8,-4.01,-38.97,-39.09,0,*50
1506708238.74,62466,17.88,74442.5,-4.01,-38.67,-38.97,0,*5A
1506708240.0,62467,17.81,74440.8,-3.99,-38.79,-39.03,0,*5E
1506708241.24,62468,17.88,74444.5,-4.01,-38.97,-39.09,0,*5D
1506708242.52,62469,17.88,74446.5,-4.01,-38.79,-39.03,0,*56
1506708243.76,62470,17.81,74442.8,-4.01,-38.61,-38.85,0,*58
1506708245.0,62471,17.81,74444.0,-3.99,-38.79,-38.97,0,*55
1506708246.27,62472,17.88,74442.5,-4.01,-39.09,-39.23,0,*58
1506708247.55,62473,17.81,74444.3,-4.01,-39.03,-39.29,0,*59
1506708248.8,62474,17.81,74444.8,-4.01,-38.85,-39.09,0,*53
1506708250.01,62475,17.88,74444.3,-4.03,-38.61,-38.85,0,*5F
1506708251.25,62476,17.88,74446.8,-4.03,-38.43,-38.79,0,*5F
1506708252.48,62477,17.81,74440.8,-4.03,-38.43,-38.79,0,*5E
1506708253.72,62478,17.88,74446.3,-4.03,-38.49,-38.85,0,*58
1506708254.95,62479,17.88,74446.3,-4.03,-38.67,-38.97,0,*56
1506708256.21,62480,17.88,74446.5,-4.01,-38.67,-38.97,0,*52
1506708257.47,62481,17.81,74442.8,-4.03,-38.79,-39.03,0,*52
1506708258.73,62482,17.81,74442.3,-4.03,-38.79,-39.23,0,*53
1506708259.95,62483,17.81,74440.8,-4.03,-38.85,-39.09,0,*59
1506708261.21,62484,17.81,74446.3,-4.05,-38.91,-39.03,0,*57
1506708262.44,62485,17.88,74444.8,-4.05,-38.97,-39.03,0,*50
1506708263.68,62486,17.81,74440.5,-4.05,-38.73,-39.03,0,*59
1506708264.92,62487,17.88,74444.3,-4.05,-38.55,-38.91,0,*56
1506708266.13,62488,17.81,74440.3,-4.03,-38.61,-38.85,0,*5D
1506708267.37,62489,17.81,74440.5,-4.05,-38.73,-38.91,0,*5C
1506708268.61,62490,17.88,74444.0,-4.05,-38.85,-39.23,0,*55
1506708269.85,62491,17.88,74444.5,-4.03,-38.79,-38.97,0,*5F
1506708271.06,62492,17.88,74446.3,-4.03,-38.85,-39.09,0,*59
1506708272.32,62493,17.81,74440.3,-4.05,-38.91,-39.29,0,*59
1506708273.57,62494,17.81,74444.5,-4.05,-38.85,-39.29,0,*5B
1506708274.83,62495,17.81,74444.0,-4.05,-38.91,-39.15,0,*50
1506708276.06,62496,17.81,74442.3,-4.09,-38.97,-39.23,0,*5C
1506708277.29,62497,17.81,74442.5,-4.11,-39.09,-39.35,0,*55
1506708278.5,62498,17.81,74440.5,-4.09,-39.09,-39.35,0,*53
1506708279.76,62499,17.81,74446.0,-4.09,-38.91,-39.15,0,*50
1506708281.01,62500,17.81,74446.3,-4.09,-38.91,-39.23,0,*54
1506708282.25,62501,17.81,74446.3,-4.09,-38.61,-38.91,0,*52
1506708283.48,62502,17.88,74446.5,-4.09,-38.61,-38.91,0,*51
1506708284.69,62503,17.88,74446.0,-4.09,-38.73,-39.09,0,*53
1506708285.93,62504,17.81,74444.5,-4.09,-38.55,-38.91,0,*50
1506708287.13,62505,17.81,74442.8,-4.09,-38.73,-38.97,0,*53
1506708288.36,62506,17.81,74442.8,-4.09,-38.97,-39.23,0,*54
1506708289.56,62507,17.81,74442.5,-4.09,-38.97,-39.35,0,*52
1506708290.84,62508,17.88,74446.0,-4.11,-38.91,-39.23,0,*55
1506708292.1,62509,17.81,74444.3,-4.11,-39.09,-39.23,0,*54
1506708293.36,62510,17.81,74446.0,-4.11,-39.15,-39.35,0,*56
1506708294.59,62511,17.81,74444.0,-4.11,-39.09,-39.35,0,*5A
1506708295.87,62512,17.81,74444.5,-4.11,-38.91,-39.15,0,*5B
1506708297.08,62513,17.81,74444.0,-4.09,-38.73,-38.97,0,*54
1506708298.31,62514,17.81,74446.5,-4.11,-38.61,-38.97,0,*59
1506708299.58,62515,17.81,74442.3,-4.13,-38.91,-39.15,0,*5E
1506708300.8,62516,17.81,74440.5,-4.13,-38.61,-39.09,0,*5F
1506708302.03,62517,17.88,74444.5,-4.11,-38.73,-38.97,0,*59
1506708303.24,62518,17.81,74440.8,-4.13,-38.73,-38.97,0,*54
1506708304.48,62519,17.81,74446.0,-4.13,-38.79,-38.97,0,*5F
1506708305.72,62520,17.81,74442.8,-4.13,-38.61,-38.91,0,*5A
1506708306.94,62521,17.81,74444.3,-4.13,-38.61,-38.97,0,*5D
1506708308.15,62522,17.81,74444.5,-4.13,-38.73,-38.97,0,*5D
1506708309.36,62523,17.81,74440.8,-4.13,-38.97,-39.35,0,*5F
1506708310.64,62524,17.81,74446.8,-4.15,-39.23,-39.41,0,*53
1506708311.93,62525,17.81,74444.3,-4.15,-39.03,-39.29,0,*5E
1506708313.17,62526,17.81,74446.3,-4.13,-39.09,-39.23,0,*5B
1506708314.46,62527,17.81,74446.5,-4.15,-39.15,-39.29,0,*5B
1506708315.73,62528,17.81,74444.0,-4.13,-39.15,-39.23,0,*58
1506708317.03,62529,17.81,74442.5,-4.15,-39.15,-39.15,0,*5A
1506708318.31,62530,17.88,74448.8,-4.15,-39.29,-39.41,0,*5C
1506708319.54,62531,17.81,74444.5,-4.17,-39.29,-39.47,0,*59
1506708320.78,62532,17.81,74444.8,-4.17,-39.41,-39.47,0,*54
1506708322.03,62533,17.81,74446.5,-4.19,-39.35,-39.53,0,*5D
1506708323.26,62534,17.81,74444.5,-4.17,-39.29,-39.47,0,*5C
1506708324.53,62535,17.81,74444.8,-4.17,-39.23,-39.29,0,*5F
1506708325.76,62536,17.81,74446.5,-4.19,-39.35,-39.47,0,*5D
1506708327.02,62537,17.81,74442.8,-4.17,-39.03,-39.29,0,*5F
1506708328.28,62538,17.81,74440.3,-4.19,-39.23,-39.47,0,*54
1506708329.52,62539,17.81,74442.3,-4.17,-39.15,-39.35,0,*5B
1506708330.78,62540,17.81,74446.8,-4.19,-39.47,-39.53,0,*5C
1506708332.02,62541,17.81,74444.3,-4.19,-39.47,-39.65,0,*58
1506708333.27,62542,17.81,74444.0,-4.19,-39.47,-39.65,0,*5B
1506708334.53,62543,17.81,74442.8,-4.19,-39.35,-39.53,0,*5A
1506708335.78,62544,17.81,74444.0,-4.19,-39.35,-39.53,0,*5D
1506708337.05,62545,17.81,74444.5,-4.21,-39.53,-39.59,0,*5D
1506708338.32,62546,17.81,74444.3,-4.21,-39.53,-39.79,0,*5C
1506708339.61,62547,17.81,74446.3,-4.23,-39.41,-39.59,0,*5E
1506708340.89,62548,17.81,74444.0,-4.23,-39.41,-39.53,0,*5B
1506708342.15,62549,17.81,74442.0,-4.21,-39.53,-39.71,0,*5B
1506708343.45,62550,17.81,74446.0,-4.23,-39.59,-39.59,0,*51
1506708344.72,62551,17.88,74446.8,-4.23,-39.59,-39.91,0,*54
1506708346.01,62552,17.81,74444.3,-4.23,-39.53,-39.79,0,*5B
1506708347.27,62553,17.81,74440.8,-4.23,-39.35,-39.59,0,*58
1506708348.53,62554,17.81,74446.8,-4.23,-39.35,-39.53,0,*55
1506708349.82,62555,17.81,74446.5,-4.23,-39.41,-39.59,0,*5D
1506708351.07,62556,17.81,74444.3,-4.23,-39.35,-39.53,0,*57
1506708352.35,62557,17.81,74440.5,-4.23,-39.29,-39.41,0,*58
1506708353.58,62558,17.81,74442.8,-4.25,-39.23,-39.47,0,*5D
1506708354.8,62559,17.81,74440.5,-4.25,-39.47,-39.65,0,*5E
1506708356.08,62560,17.81,74442.5,-4.25,-39.59,-39.79,0,*56
1506708357.34,62561,17.81,74440.0,-4.27,-39.47,-39.59,0,*58
1506708358.57,62562,17.81,74442.0,-4.27,-39.35,-39.47,0,*51
1506708359.78,62563,17.81,74444.0,-4.25,-39.35,-39.47,0,*52
1506708361.02,62564,17.81,74444.0,-4.25,-39.15,-39.35,0,*52
1506708362.28,62565,17.81,74442.5,-4.27,-39.15,-39.35,0,*51
1506708363.51,62566,17.81,74444.8,-4.25,-39.23,-39.35,0,*55
1506708364.72,62567,17.81,74442.3,-4.25,-39.35,-39.47,0,*56
1506708365.92,62568,17.81,74442.3,-4.25,-39.35,-39.47,0,*59
1506708367.16,62569,17.81,74446.3,-4.25,-39.15,-39.35,0,*5F
1506708368.45,62570,17.81,74444.8,-4.27,-39.15,-39.41,0,*56
1506708369.74,62571,17.81,74444.0,-4.27,-39.15,-39.41,0,*57
1506708370.99,62572,17.81,74440.8,-4.27,-38.97,-39.23,0,*5B
1506708372.26,62573,17.81,74442.5,-4.27,-38.85,-39.03,0,*5B
1506708373.52,62574,17.81,74444.0,-4.25,-39.23,-39.41,0,*55
1506708374.77,62575,17.81,74444.3,-4.27,-39.23,-39.35,0,*55
1506708376.01,62576,17.81,74444.5,-4.25,-39.41,-39.47,0,*55
1506708377.26,62577,17.81,74440.3,-4.27,-39.23,-39.35,0,*57
1506708378.52,62578,17.81,74442.0,-4.27,-39.23,-39.35,0,*58
1506708379.73,62579,17.81,74440.3,-4.29,-39.47,-39.47,0,*50
1506708380.99,62580,17.81,74442.8,-4.29,-39.41,-39.41,0,*56
1506708382.23,62581,17.81,74446.0,-4.29,-39.41,-39.47,0,*51
1506708383.49,62582,17.81,74444.5,-4.29,-39.41,-39.53,0,*57
1506708384.73,62583,17.81,74442.0,-4.29,-39.47,-39.53,0,*50
1506708385.97,62584,17.81,74444.0,-4.29,-39.41,-39.47,0,*54
1506708387.22,62585,17.81,74444.0,-4.33,-39.23,-39.23,0,*58
1506708388.46,62586,17.81,74446.0,-4.33,-39.41,-39.47,0,*5D
1506708389.69,62587,17.81,74440.5,-4.33,-39.41,-39.47,0,*5C
1506708390.95,62588,17.81,74442.3,-4.33,-39.41,-39.41,0,*55
1506708392.18,62589,17.81,74442.5,-4.33,-39.41,-39.47,0,*52
1506708393.44,62590,17.81,74446.0,-4.33,-39.29,-39.29,0,*5C
1506708394.67,62591,17.81,74442.0,-4.33,-39.23,-39.47,0,*5F
1506708395.9,62592,17.81,74442.0,-4.33,-39.29,-39.47,0,*56
1506708397.14,62593,17.81,74442.8,-4.33,-39.41,-39.47,0,*59
1506708398.4,62594,17.81,74440.5,-4.33,-39.23,-39.23,0,*58
1506708399.66,62595,17.81,74446.0,-4.33,-39.23,-39.29,0,*53
1506708400.91,62596,17.81,74442.5,-4.33,-39.23,-39.23,0,*5A
1506708402.15,62597,17.81,74444.5,-4.33,-38.85,-39.03,0,*54
1506708403.39,62598,17.81,74440.3,-4.33,-38.85,-39.03,0,*5B
1506708404.63,62599,17.81,74440.5,-4.33,-39.03,-39.09,0,*5F
1506708405.89,62600,17.81,74440.0,-4.33,-39.03,-39.23,0,*54
1506708407.15,62601,17.81,74442.5,-4.33,-39.23,-39.29,0,*5D
1506708408.41,62602,17.81,74440.8,-4.33,-39.29,-39.41,0,*5A
1506708409.7,62603,17.81,74442.5,-4.35,-39.15,-39.15,0,*53
1506708410.96,62604,17.81,74442.5,-4.35,-38.91,-39.09,0,*54
1506708412.23,62605,17.81,74442.3,-4.35,-38.91,-39.09,0,*55
1506708413.49,62606,17.81,74440.0,-4.35,-38.91,-38.97,0,*50
1506708414.78,62607,17.81,74442.3,-4.35,-39.15,-39.29,0,*58
1506708416.07,62608,17.81,74442.8,-4.35,-39.15,-39.29,0,*57
1506708417.26,62609,17.81,74442.5,-4.37,-38.97,-39.09,0,*5D
1506708418.49,62610,17.81,74440.8,-4.37,-38.91,-39.09,0,*53
1506708419.72,62611,17.81,74438.3,-4.37,-39.09,-39.29,0,*50
1506708420.95,62612,17.81,74438.5,-4.37,-39.09,-39.15,0,*5C
1506708422.21,62613,17.81,74442.0,-4.35,-39.09,-39.15,0,*5F
1506708423.48,62614,17.81,74442.5,-4.35,-39.09,-39.15,0,*58
1506708424.71,62615,17.81,74440.5,-4.37,-38.79,-38.97,0,*56
1506708425.91,62616,17.81,74444.3,-4.37,-38.61,-38.55,0,*52
1506708427.18,62617,17.81,74442.5,-4.35,-38.61,-38.79,0,*5F
1506708428.41,62618,17.81,74444.0,-4.35,-38.61,-38.73,0,*5A
1506708429.65,62619,17.81,74442.8,-4.35,-38.35,-38.55,0,*5E
1506708430.89,62620,17.81,74442.0,-4.35,-38.43,-38.55,0,*55
1506708432.12,62621,17.81,74442.5,-4.35,-38.35,-38.35,0,*53
1506708433.36,62622,17.81,74444.0,-4.35,-38.43,-38.43,0,*50
1506708434.59,62623,17.81,74440.0,-4.37,-38.23,-38.35,0,*54
1506708435.83,62624,17.81,74442.8,-4.35,-38.17,-38.35,0,*56
1506708437.07,62625,17.81,74442.5,-4.35,-38.17,-38.35,0,*57
1506708438.33,62626,17.81,74442.3,-4.35,-38.11,-38.35,0,*52
1506708439.59,62627,17.81,74440.3,-4.35,-37.99,-38.17,0,*5C
1506708440.88,62628,17.81,74446.3,-4.35,-38.11,-38.23,0,*5B
1506708442.12,62629,17.81,74444.0,-4.33,-38.17,-38.29,0,*50
1506708443.36,62630,17.81,74442.3,-4.33,-38.29,-38.35,0,*58
1506708444.6,62631,17.81,74442.3,-4.33,-38.11,-38.17,0,*52
1506708445.84,62632,17.81,74444.0,-4.33,-37.93,-38.17,0,*54
1506708447.05,62633,17.81,74446.0,-4.29,-38.05,-38.17,0,*5E
1506708448.29,62634,17.81,74442.8,-4.33,-37.93,-38.05,0,*51
1506708449.53,62635,17.81,74442.5,-4.29,-37.93,-38.17,0,*58
1506708450.77,62636,17.81,74440.5,-4.29,-37.75,-37.93,0,*50
1506708451.99,62637,17.81,74440.3,-4.29,-37.87,-38.05,0,*5C
1506708453.2,62638,17.81,74442.8,-4.29,-37.75,-38.05,0,*5E
1506708454.41,62639,17.81,74442.8,-4.29,-37.87,-38.05,0,*52
1506708455.66,62640,17.81,74442.5,-4.29,-37.87,-38.11,0,*59
1506708456.87,62641,17.81,74442.8,-4.29,-37.75,-38.05,0,*50
1506708458.11,62642,17.81,74440.5,-4.29,-37.87,-38.11,0,*5B
1506708459.32,62643,17.81,74440.5,-4.29,-37.75,-38.05,0,*52
1506708460.54,62644,17.81,74438.8,-4.29,-37.87,-38.05,0,*58
1506708461.79,62645,17.81,74442.5,-4.29,-37.87,-37.93,0,*59
1506708463.03,62646,17.81,74442.5,-4.29,-37.75,-37.93,0,*57
1506708464.25,62647,17.81,74442.0,-4.29,-37.75,-37.87,0,*53
1506708465.49,62648,17.81,74440.0,-4.29,-37.87,-37.93,0,*54
1506708466.73,62649,17.81,74438.8,-4.29,-37.75,-37.93,0,*58
1506708467.94,62650,17.81,74442.3,-4.29,-37.75,-38.05,0,*50
1506708469.21,62651,17.81,74440.3,-4.29,-37.69,-37.93,0,*5C
1506708470.42,62652,17.81,74444.8,-4.29,-37.57,-37.75,0,*5A
1506708471.64,62653,17.81,74440.0,-4.29,-37.57,-37.75,0,*5B
1506708472.85,62654,17.81,74438.5,-4.29,-37.75,-38.05,0,*54
1506708474.12,62655,17.81,74440.0,-4.27,-37.51,-37.87,0,*58
1506708475.39,62656,17.81,74438.3,-4.27,-37.45,-37.51,0,*55
1506708476.68,62657,17.81,74438.5,-4.27,-37.51,-37.63,0,*50
1506708477.97,62658,17.81,74442.5,-4.27,-37.51,-37.63,0,*5F
1506708479.21,62659,17.81,74440.8,-4.27,-37.15,-37.33,0,*5B
1506708480.48,62660,17.81,74440.8,-4.27,-37.45,-37.63,0,*51
1506708481.77,62661,17.81,74440.3,-4.27,-37.69,-37.81,0,*52
1506708483.06,62662,17.81,74438.3,-4.27,-37.51,-37.69,0,*5C
1506708484.36,62663,17.81,74442.0,-4.27,-37.81,-37.99,0,*5F
1506708485.57,62664,17.81,74442.8,-4.25,-37.87,-38.05,0,*56
1506708486.81,62665,17.81,74440.0,-4.25,-37.81,-38.05,0,*51
1506708488.1,62666,17.81,74440.8,-4.27,-37.51,-37.81,0,*5E
1506708489.37,62667,17.81,74438.0,-4.25,-37.69,-37.81,0,*56
1506708490.67,62668,17.81,74440.3,-4.27,-37.81,-37.99,0,*54
1506708491.97,62669,17.81,74438.0,-4.27,-37.81,-37.99,0,*55
1506708493.24,62670,17.81,74438.5,-4.27,-37.63,-37.87,0,*5E
1506708494.51,62671,17.81,74438.3,-4.27,-37.81,-38.05,0,*56
1506708495.77,62672,17.81,74440.5,-4.27,-37.87,-38.11,0,*56
1506708497.07,62673,17.81,74436.8,-4.27,-37.81,-37.99,0,*5E
1506708498.34,62674,17.81,74440.0,-4.25,-37.69,-37.99,0,*5D
1506708499.58,62675,17.81,74440.0,-4.25,-37.69,-37.87,0,*53